This is the latest recevied weather packets stored in our database for station/object WX7FGZ-6. If no packets are shown the sender has not sent any weather packets the latest 1 day(s).
| Time | Temp. | Humidity | Pressure | Rain* | Wind** | Luminosity | Snow |
|---|---|---|---|---|---|---|---|
| 1777986700 | -5° C | 91% | 1011.4 hPa | 0 mm | 2.68 m/s, 175° | - | - |
| 1777986400 | -5° C | 91% | 1011.4 hPa | 0 mm | 2.24 m/s, 181° | - | - |
| 1777986100 | -5° C | 91% | 1011.2 hPa | 0 mm | 2.68 m/s, 188° | - | - |
| 1777985800 | -5° C | 91% | 1011.3 hPa | 0 mm | 0.89 m/s, 183° | - | - |
| 1777985500 | -4.44° C | 91% | 1011.2 hPa | 0 mm | 2.68 m/s, 189° | - | - |
| 1777985113 | -5° C | 91% | 1011.2 hPa | 0 mm | 1.34 m/s, 220° | - | - |
| 1777984950 | -5° C | 91% | 1011.2 hPa | 0 mm | 1.34 m/s, 220° | - | - |
| 1777984649 | -4.44° C | 91% | 1011 hPa | 0 mm | 3.58 m/s, 180° | - | - |
| 1777984349 | -5° C | 91% | 1011.2 hPa | 0 mm | 1.79 m/s, 180° | - | - |
| 1777984050 | -4.44° C | 91% | 1011.3 hPa | 0 mm | 2.24 m/s, 182° | - | - |
| 1777983931 | -4.44° C | 91% | 1011.2 hPa | 0 mm | 1.79 m/s, 187° | - | - |
| 1777983750 | -4.44° C | 91% | 1011.2 hPa | 0 mm | 1.79 m/s, 187° | - | - |
| 1777983450 | -4.44° C | 91% | 1011.4 hPa | 0 mm | 2.68 m/s, 177° | - | - |
| 1777982997 | -4.44° C | 91% | 1011.5 hPa | 0 mm | 2.24 m/s, 176° | - | - |
| 1777982900 | -3.89° C | 91% | 1011.5 hPa | 0 mm | 3.13 m/s, 177° | - | - |
| 1777982697 | -3.89° C | 91% | 1011.5 hPa | 0 mm | 3.13 m/s, 177° | - | - |
| 1777982260 | -3.89° C | 91% | 1011.6 hPa | 0 mm | 3.58 m/s, 180° | - | - |
| 1777981960 | -3.89° C | 91% | 1011.6 hPa | 0 mm | 3.13 m/s, 184° | - | - |
| 1777981660 | -3.89° C | 91% | 1011.7 hPa | 0 mm | 3.13 m/s, 179° | - | - |
| 1777981360 | -3.89° C | 91% | 1011.7 hPa | 0 mm | 4.47 m/s, 179° | - | - |
| 1777981060 | -3.89° C | 91% | 1011.7 hPa | 0 mm | 4.02 m/s, 179° | - | - |
| 1777980760 | -3.89° C | 91% | 1011.7 hPa | 0 mm | 4.47 m/s, 175° | - | - |
| 1777980460 | -3.89° C | 91% | 1012 hPa | 0 mm | 4.47 m/s, 182° | - | - |
| 1777980387 | -3.89° C | 91% | 1011.9 hPa | 0 mm | 3.58 m/s, 175° | - | - |
| 1777980160 | -3.89° C | 91% | 1011.9 hPa | 0 mm | 3.58 m/s, 175° | - | - |
* Rain latest hour (hover to see other rain measurements)
** Current wind speed in m/s (hover to see current wind gust speed)